{"data":{"norad_id":59160,"intl_designator":"2024-044J","name":"STARLINK-31327","alt_names":[],"object_type":"PAYLOAD","status":"ACTIVE","operator":null,"country":"US","launch_date":"2024-03-04","launch_site_code":"AFETR","launch_vehicle":null,"mission":null,"orbit_class":"UNKNOWN","rcs_meters":null,"size_class":null,"mass_kg":null,"dimensions":null,"purposes":["comms"],"wikipedia_slug":null,"has_3d_model":false,"image_url":null,"decayed_at":null,"tle_current":{"epoch":"2026-09-19T22:52:17.272416Z","epoch_age_seconds":206119,"freshness":"STALE","line1":"1 59160U 24044J   26262.95297769  .00001065  00000+0  48217-4 0  9994","line2":"2 59160  43.0004  90.1026 0001075 276.7559  83.3170 15.27581267143303","mean_motion":15.27581267,"eccentricity":0.0001075,"inclination_deg":43.0004,"raan_deg":90.1026,"arg_perigee_deg":276.7559,"mean_anomaly_deg":83.317,"bstar":4.8217e-5,"rev_number":14330,"period_min":94.266670527323,"perigee_km":482.30772509099,"apogee_km":483.78287928596,"semimajor_km":6861.1823021885,"source":"CELESTRAK","updated_at":"2026-09-21T09:00:34.057459Z"}}}